Location: Newark
(22.3060°N, 114.2134°E)
Time: 19:17:02
(UTC+00:00)

Vanguard 2 - Pass Details

Date: 07 August 2021
Orbit: 553 x 2937 km, 32.9° (Epoch: 27 September)

Event Time Altitude Azimuth Distance (km) Brightness Sun altitude
Rises 02:11:21 0° 280° (W) 3,566 10.6 57.1°
Reaches altitude 10° 02:13:47 10° 270° (W) 2,866 10.2 57.6°
Maximum altitude 02:20:06 33° 208° (SSW) 2,197 10.2 59.1°
Drops below altitude 10° 02:29:54 10° 149° (SSE) 4,472 11.8 61.3°
Sets 02:34:48 0° 141° (SE) 5,876 12.3 62.5°
